Wind_Speed
38 39 36 37 39 39 39 39 40 38 41 45 42 44 41 42 42 40 34 32 35 37 38 40 40 39 39 39 38 40 39 37 37 37 35 36 37 36 37 38 39 39 40 40
40 42 38 41 41 41 41 42 41 42 41 42 41 42 39 37 38 39 38 37 36 35 35 38 40 41 41 40 39 38 37 38 37 38 41 41 41 43 44 44 45 46 46 46
40 39 37 37 39 38 39 37 38 39 38 43 45 44 38 39 39 38 41 40 39 39 37 35 35 38 41 42 44 45 45 43 42 40 40 42 45 45 47 48 49 49 50 51
37 31 34 34 34 36 36 36 38 39 43 43 44 48 42 40 42 43 42 43 43 44 41 40 40 40 38 38 40 44 46 49 47 47 47 45 44 44 45 48 50 51 51 54
38 38 34 34 35 37 37 39 40 41 42 44 44 47 50 48 48 48 48 47 47 43 44 44 42 42 45 41 41 42 42 44 48 50 52 53 50 53 52 52 54 56 55 54
38 38 37 38 38 37 37 37 39 41 43 46 43 47 51 49 48 46 46 47 46 45 46 46 46 46 47 50 47 45 45 46 48 50 52 55 56 58 59 61 61 60 62 61
40 39 40 40 41 39 39 38 41 45 45 46 45 47 46 46 51 53 53 53 50 50 49 50 51 50 51 52 53 55 54 53 52 53 54 62 62 63 67 71 69 67 68 68
41 39 39 40 39 39 42 41 40 44 47 47 50 53 53 54 56 54 55 54 51 51 52 52 54 54 56 58 59 61 61 60 59 59 60 62 68 70 70 72 75 76 73 74
43 42 38 40 39 40 42 46 46 51 52 55 57 60 59 58 56 55 53 52 53 54 55 58 59 60 61 63 64 64 65 67 68 67 66 67 69 72 74 76 77 78 80 80
42 43 42 43 46 48 50 52 54 56 58 61 60 57 57 54 54 53 52 53 55 57 59 61 64 65 65 66 68 69 68 69 69 70 72 74 76 76 78 80 82 83 84 85
41 44 48 52 54 51 50 51 52 53 56 59 59 56 54 53 54 54 55 56 59 61 63 65 67 69 70 71 72 74 75 75 76 78 80 81 81 82 82 84 83 84 84 83
53 56 59 53 50 48 48 49 50 54 55 56 60 55 54 56 58 58 59 62 64 65 66 67 68 71 74 76 77 78 79 80 81 82 83 84 85 86 88 88 87 87 84 82
54 56 56 54 52 50 50 48 51 57 58 58 60 60 55 57 60 61 64 66 67 67 68 70 71 74 77 78 80 81 83 84 85 85 85 86 87 88 89 89 89 91 92 90
52 54 56 56 55 54 53 52 55 59 61 61 60 62 58 59 61 64 66 67 68 69 71 72 74 76 78 80 82 84 87 88 88 89 89 90 91 92 93 94 94 94 95 97
59 60 58 55 55 56 55 54 59 62 63 67 61 63 61 60 62 64 64 65 68 71 72 73 75 77 79 81 83 85 87 87 87 87 87 88 88 88 89 90 91 91 92 94
57 59 57 56 57 59 58 55 60 63 62 62 61 66 58 63 64 65 68 70 72 72 73 75 76 78 80 81 83 84 85 86 85 82 80 78 76 74 74 74 75 76 78 81
58 56 56 57 57 61 64 58 59 60 64 66 66 64 63 63 66 69 71 73 74 75 77 79 79 80 82 84 84 84 83 79 74 70 67 65 65 65 65 66 68 69 70 70
54 55 58 62 62 69 61 58 61 65 63 65 65 65 66 69 70 72 74 75 76 77 79 78 79 80 81 81 79 75 71 67 66 64 63 63 64 65 68 70 71 71 72 73
54 58 64 66 68 69 62 60 63 66 64 64 65 66 70 70 71 71 74 75 76 76 77 79 78 75 70 66 63 62 62 62 61 61 62 64 67 70 72 72 73 73 73 73
57 60 62 65 68 69 62 61 61 63 66 61 66 68 69 70 74 73 77 75 76 77 77 73 67 62 59 57 57 59 60 61 61 62 64 67 70 71 72 73 73 71 71 67
57 59 60 60 65 69 59 59 60 65 60 64 66 69 72 74 75 74 76 76 75 72 64 59 56 54 54 54 56 57 59 61 62 64 66 67 68 70 70 70 68 65 65 65
57 59 61 62 66 67 59 65 64 62 66 68 71 73 75 75 75 76 75 75 69 58 53 51 51 52 53 53 55 56 57 59 60 63 65 67 68 69 69 67 65 63 57 51
58 56 57 62 64 64 66 66 66 68 71 73 74 74 76 76 76 75 72 64 55 52 51 50 51 52 52 53 54 55 55 56 60 62 63 65 67 66 66 65 60 51 44 40
53 54 60 64 62 63 67 67 68 70 71 72 73 74 74 75 73 68 58 54 50 49 50 51 52 52 52 53 54 56 57 58 59 61 63 64 63 62 63 60 51 43 41 41
54 57 60 66 65 67 68 68 69 70 71 70 70 69 70 67 61 52 52 51 47 48 49 51 52 53 54 55 57 57 58 58 60 61 61 61 59 59 59 51 43 40 42 41
53 58 66 68 65 68 70 70 70 71 69 67 65 64 61 55 52 49 49 47 46 48 50 52 53 53 55 57 58 58 59 59 59 58 57 57 56 55 51 41 36 42 40 39
Wind_Direction
281 282 284 281 281 285 285 286 285 286 287 290 293 292 294 291 291 292 287 280 284 288 289 290 290 287 285 283 283 284 282 277 273 270 265 263 264 261 262 262 263 263 263 259
280 279 280 277 278 279 280 282 285 285 287 289 290 290 292 291 291 293 293 290 286 280 276 274 277 281 284 284 282 277 275 275 276 273 271 266 261 263 264 263 263 264 266 263
271 274 273 275 274 277 281 285 284 287 287 289 290 290 291 292 294 292 292 290 288 287 284 278 272 270 272 274 277 280 280 276 273 270 268 267 264 261 261 263 264 265 266 265
275 270 272 272 276 278 282 282 285 286 288 289 287 290 290 289 289 290 292 293 292 291 292 291 288 285 281 277 276 277 277 278 280 280 275 270 265 260 263 265 266 264 263 264
276 277 272 276 278 280 281 283 284 284 283 282 287 288 291 292 296 296 297 297 297 296 294 294 295 295 295 290 285 284 282 277 276 276 276 276 271 264 265 267 264 263 264 263
277 280 281 279 278 278 280 282 283 284 284 283 288 287 288 290 294 298 295 293 292 291 290 289 289 288 287 287 285 279 276 273 272 271 267 268 271 267 264 271 271 268 265 262
276 277 279 280 282 282 281 282 284 282 283 284 286 285 286 290 292 291 290 288 287 288 288 287 287 286 285 283 282 282 281 279 274 270 264 259 265 268 263 262 265 263 264 263
276 274 274 276 277 278 280 280 281 284 284 286 287 286 289 290 290 287 284 284 283 282 283 285 285 285 284 283 283 283 282 280 277 275 271 263 262 264 266 266 268 267 264 262
277 277 276 277 277 277 279 281 281 281 282 280 283 285 287 284 280 279 277 276 278 281 281 281 281 281 281 280 279 278 278 278 278 276 273 268 266 266 264 264 264 264 267 269
275 276 279 281 281 282 284 281 279 279 278 277 283 284 282 279 278 278 277 277 277 277 279 279 279 280 280 280 280 281 281 279 277 276 275 274 272 270 268 267 267 267 267 267
271 276 283 284 288 285 281 280 278 276 276 277 279 284 285 281 279 277 276 276 275 274 274 275 277 278 278 279 280 279 278 278 278 277 276 276 276 276 275 274 272 271 271 270
278 283 285 287 283 280 279 280 280 275 276 274 273 280 280 278 275 274 274 273 273 274 275 276 276 276 278 278 279 280 281 282 282 282 281 280 278 275 274 273 274 273 270 269
287 284 285 282 280 280 279 279 277 274 272 272 269 278 278 274 274 274 273 273 274 276 278 279 281 281 282 282 283 284 284 284 284 283 282 280 278 277 275 274 272 270 270 268
283 283 285 286 283 281 277 275 273 270 270 272 274 274 275 274 272 272 273 276 280 282 283 284 285 286 286 287 287 287 286 286 285 285 284 282 281 279 278 276 275 273 271 269
280 281 280 278 275 273 271 275 274 272 274 272 277 275 275 275 276 278 281 282 283 285 287 288 288 288 288 287 287 287 287 287 286 285 284 283 282 282 282 281 280 280 278 276
274 273 273 272 271 271 274 278 273 274 275 277 277 275 277 274 277 279 281 283 286 287 288 288 288 289 289 290 289 288 287 286 285 285 284 284 285 285 284 283 282 282 281 280
268 269 269 268 267 268 269 279 273 273 272 274 274 278 278 280 281 283 284 285 286 288 289 291 292 293 292 291 289 288 286 286 286 287 288 288 288 288 289 289 288 287 286 284
268 269 268 269 267 264 280 277 273 271 271 273 277 279 282 283 285 288 291 292 293 293 293 294 294 293 290 289 287 286 286 287 287 288 289 290 291 293 294 293 292 291 290 289
271 270 267 266 268 271 276 277 275 272 274 277 282 284 286 289 290 291 290 291 293 294 295 294 292 290 287 285 284 284 284 285 286 287 289 290 292 294 294 294 294 293 291 290
268 265 267 271 273 276 278 275 276 279 277 280 281 284 287 289 290 291 293 294 295 295 294 293 290 286 285 286 286 286 287 288 289 290 291 291 292 293 294 295 294 294 294 294
266 267 270 272 272 273 279 279 278 278 289 283 286 287 288 289 291 293 294 296 295 295 293 287 284 283 283 284 284 285 286 288 289 291 292 292 294 295 295 295 297 298 299 298
267 267 269 271 274 278 279 279 282 285 286 287 287 288 290 292 293 295 295 295 296 292 286 283 283 282 283 283 284 285 287 289 291 292 294 295 296 296 298 299 301 302 300 297
266 271 271 270 274 279 282 282 284 287 288 288 289 290 291 293 295 294 296 296 292 288 286 284 283 284 285 285 286 287 289 292 293 294 295 296 296 299 299 302 304 301 297 297
268 270 270 273 278 280 281 284 287 288 287 288 289 291 292 292 293 294 293 289 286 284 284 284 285 286 286 287 288 290 291 293 294 295 295 296 298 300 300 304 302 298 299 301
269 271 276 275 276 278 279 283 284 284 285 287 288 288 288 290 293 291 287 287 286 283 284 285 286 287 288 289 289 291 293 294 294 295 295 296 299 300 301 301 297 298 301 301
275 277 275 277 277 278 280 280 282 285 286 285 283 284 288 289 290 286 286 284 283 282 284 285 286 287 288 290 291 293 294 293 293 292 293 297 300 300 300 295 293 300 302 306
Height
5817 5816 5819 5817 5814 5814 5813 5812 5810 5812 5810 5805 5808 5803 5807 5804 5800 5800 5802 5801 5799 5798 5796 5794 5792 5792 5791 5790 5788 5787 5787 5787 5786 5784 5783 5782 5781 5780 5779 5778 5777 5777 5777 5777
5809 5806 5809 5806 5805 5804 5803 5802 5802 5800 5800 5797 5796 5795 5796 5794 5792 5792 5791 5789 5789 5789 5789 5787 5784 5782 5780 5779 5779 5777 5775 5774 5774 5774 5773 5772 5771 5769 5768 5768 5767 5767 5765 5765
5796 5797 5796 5796 5795 5795 5793 5794 5792 5791 5791 5787 5785 5785 5787 5786 5784 5783 5781 5780 5778 5777 5777 5777 5776 5774 5772 5771 5769 5768 5767 5766 5764 5762 5761 5760 5758 5758 5756 5755 5754 5754 5754 5753
5786 5788 5786 5785 5786 5785 5784 5784 5783 5782 5779 5779 5777 5773 5778 5776 5774 5772 5771 5769 5767 5765 5763 5762 5762 5763 5763 5760 5760 5758 5756 5754 5752 5751 5750 5748 5746 5744 5743 5742 5741 5740 5739 5739
5778 5778 5779 5777 5776 5775 5775 5773 5773 5771 5770 5768 5769 5765 5762 5762 5761 5760 5758 5755 5753 5751 5750 5748 5747 5745 5744 5747 5746 5744 5743 5742 5740 5738 5736 5735 5733 5731 5729 5728 5727 5726 5725 5723
5767 5767 5768 5767 5766 5766 5765 5764 5761 5760 5758 5755 5759 5757 5753 5751 5749 5747 5745 5743 5741 5739 5737 5735 5734 5733 5732 5730 5728 5728 5726 5725 5724 5722 5720 5719 5717 5716 5714 5712 5710 5709 5708 5707
5759 5759 5758 5757 5756 5755 5755 5754 5752 5750 5748 5747 5746 5744 5745 5743 5740 5737 5734 5731 5728 5726 5724 5722 5720 5719 5717 5715 5713 5711 5710 5708 5707 5706 5705 5703 5701 5698 5696 5695 5693 5692 5691 5689
5747 5749 5747 5747 5746 5745 5743 5744 5743 5738 5737 5737 5733 5731 5733 5730 5727 5726 5721 5719 5716 5714 5712 5708 5706 5704 5701 5699 5697 5694 5693 5690 5689 5688 5687 5685 5683 5680 5679 5676 5673 5671 5669 5669
5733 5733 5734 5734 5734 5735 5734 5731 5731 5724 5725 5723 5722 5721 5722 5718 5714 5712 5709 5707 5704 5702 5699 5696 5693 5690 5686 5683 5680 5678 5674 5671 5669 5668 5666 5665 5662 5660 5659 5656 5654 5652 5648 5645
5721 5719 5721 5722 5721 5721 5721 5720 5716 5712 5706 5704 5707 5706 5703 5704 5701 5698 5695 5694 5691 5689 5685 5681 5677 5673 5669 5665 5661 5657 5654 5651 5649 5647 5645 5643 5641 5638 5636 5633 5630 5629 5626 5624
5710 5710 5710 5706 5706 5706 5704 5702 5700 5697 5692 5688 5688 5694 5692 5689 5687 5684 5682 5679 5675 5672 5669 5666 5661 5657 5652 5647 5642 5638 5635 5632 5630 5627 5624 5622 5619 5615 5612 5609 5606 5604 5602 5600
5697 5695 5696 5694 5690 5690 5689 5687 5684 5677 5677 5674 5669 5677 5678 5675 5670 5669 5667 5660 5655 5655 5652 5649 5644 5639 5633 5628 5624 5619 5615 5611 5607 5604 5601 5597 5594 5591 5588 5585 5582 5579 5577 5575
5681 5675 5676 5676 5676 5677 5675 5674 5669 5662 5659 5658 5655 5658 5664 5659 5653 5649 5646 5643 5639 5636 5632 5628 5624 5620 5614 5609 5604 5598 5593 5589 5584 5580 5576 5572 5568 5565 5562 5559 5556 5554 5552 5550
5665 5662 5661 5662 5660 5659 5659 5658 5653 5646 5642 5641 5644 5640 5647 5642 5636 5630 5628 5627 5621 5616 5612 5608 5603 5598 5593 5588 5581 5574 5568 5564 5558 5553 5549 5544 5539 5536 5532 5528 5525 5524 5522 5520
5650 5646 5645 5645 5643 5640 5641 5644 5632 5628 5629 5620 5632 5621 5628 5624 5616 5614 5612 5608 5603 5597 5593 5589 5585 5579 5572 5566 5559 5551 5543 5538 5533 5527 5521 5517 5512 5507 5503 5498 5495 5493 5491 5489
5634 5629 5628 5629 5625 5623 5622 5630 5622 5617 5613 5605 5605 5603 5610 5603 5601 5598 5594 5590 5585 5580 5576 5570 5564 5558 5551 5543 5536 5528 5520 5514 5509 5504 5500 5495 5490 5485 5480 5476 5473 5469 5466 5462
5614 5613 5613 5610 5609 5604 5600 5614 5608 5604 5601 5595 5587 5590 5587 5585 5582 5577 5574 5570 5564 5559 5554 5548 5542 5536 5528 5519 5511 5503 5497 5491 5486 5482 5478 5474 5469 5465 5461 5456 5452 5448 5444 5440
5597 5596 5594 5591 5590 5579 5595 5596 5592 5586 5586 5579 5574 5569 5567 5565 5563 5558 5553 5547 5542 5537 5531 5525 5519 5512 5504 5495 5488 5481 5477 5472 5469 5465 5460 5456 5451 5446 5441 5437 5431 5426 5421 5416
5583 5580 5575 5571 5570 5567 5576 5579 5572 5564 5570 5566 5556 5550 5547 5545 5541 5542 5532 5529 5525 5517 5510 5502 5494 5488 5482 5476 5471 5466 5462 5457 5453 5450 5445 5440 5434 5428 5422 5416 5410 5404 5399 5393
5568 5563 5559 5554 5547 5545 5559 5559 5553 5546 5543 5550 5539 5535 5530 5527 5524 5523 5511 5509 5503 5495 5487 5481 5474 5468 5464 5460 5456 5451 5446 5442 5438 5434 5428 5422 5416 5410 5403 5396 5389 5383 5375 5370
5553 5547 5542 5540 5526 5528 5541 5535 5533 5528 5533 5524 5523 5518 5512 5510 5507 5502 5494 5487 5481 5474 5467 5462 5457 5454 5450 5446 5441 5437 5432 5428 5423 5417 5411 5404 5398 5391 5384 5378 5369 5363 5356 5348
5535 5533 5530 5524 5514 5511 5524 5510 5511 5511 5504 5503 5501 5499 5493 5490 5486 5479 5475 5468 5461 5455 5451 5447 5443 5439 5436 5432 5428 5424 5419 5414 5408 5401 5393 5386 5379 5371 5364 5358 5351 5344 5336 5331
5516 5521 5515 5509 5502 5501 5495 5492 5491 5488 5483 5481 5481 5477 5472 5469 5466 5459 5453 5449 5444 5439 5435 5432 5428 5424 5421 5417 5413 5408 5404 5399 5392 5385 5378 5370 5362 5354 5346 5340 5333 5328 5322 5318
5506 5505 5497 5490 5494 5488 5475 5474 5473 5468 5461 5459 5457 5456 5452 5446 5446 5441 5436 5433 5429 5425 5421 5417 5413 5409 5405 5401 5397 5392 5388 5382 5376 5369 5362 5354 5347 5340 5332 5325 5318 5314 5310 5306
5494 5489 5486 5473 5474 5466 5463 5462 5455 5450 5444 5441 5437 5434 5432 5428 5427 5423 5421 5417 5414 5411 5407 5403 5398 5393 5389 5384 5379 5375 5370 5365 5359 5353 5346 5339 5333 5325 5319 5313 5307 5303 5299 5294
5483 5477 5460 5451 5454 5445 5447 5446 5439 5432 5427 5423 5417 5415 5414 5412 5411 5408 5405 5402 5400 5396 5393 5388 5384 5379 5373 5367 5361 5356 5352 5347 5342 5337 5331 5325 5319 5312 5306 5301 5299 5292 5287 5282